Temp
10 10 9 8 8 9 9 9 9 10 10 9 9 9 8 7 6 6 5 5 4 3 2 1 1 -0 -0 -1 1 3 3 5 4 5 8 10 10 10 12 12 14 14 15
10 9 9 8 8 9 8 8 7 8 8 7 7 6 6 5 5 4 4 4 3 2 1 -1 -1 -2 -3 -3 -3 -2 0 2 3 3 4 6 10 11 12 12 14 14 15
11 9 8 7 7 7 7 7 6 6 6 6 6 6 6 5 5 4 3 2 1 -1 -2 -4 -5 -5 -4 -4 -4 -4 -3 -1 1 2 3 6 8 9 11 12 12 13 14
11 9 8 7 7 7 6 5 4 4 4 4 5 4 4 3 2 2 1 0 -2 -4 -5 -6 -5 -5 -5 -5 -5 -5 -4 -3 -2 -1 2 3 4 5 8 11 11 11 12
10 9 8 7 6 5 4 4 2 3 3 3 4 3 3 2 1 1 -0 -1 -4 -6 -6 -6 -6 -6 -6 -6 -5 -5 -4 -4 -3 -2 -1 1 4 5 5 6 10 10 10
10 8 7 6 5 4 4 3 2 2 2 2 3 3 2 2 1 1 -1 -2 -5 -6 -7 -7 -7 -6 -6 -6 -6 -5 -5 -4 -3 -3 -2 -1 1 3 4 5 6 7 9
9 8 7 5 5 4 4 3 2 2 2 2 2 2 2 1 1 -0 -3 -5 -6 -6 -7 -7 -7 -7 -7 -7 -6 -5 -4 -4 -3 -3 -2 -2 -0 1 2 2 3 4 5
9 8 7 5 5 4 4 3 3 2 2 2 2 1 0 1 0 -1 -3 -5 -7 -6 -7 -8 -7 -7 -7 -6 -5 -5 -4 -3 -2 -2 -2 -2 -1 0 1 1 1 3 4
9 8 7 6 4 3 4 3 3 2 1 2 1 1 0 0 -1 -2 -4 -6 -6 -6 -7 -7 -7 -7 -7 -6 -5 -4 -3 -3 -1 -2 -2 -1 -1 -0 1 1 1 1 2
9 8 6 6 4 4 4 3 3 2 2 1 0 0 -0 -1 -1 -2 -4 -5 -5 -5 -6 -7 -7 -7 -7 -7 -6 -5 -4 -3 -3 -2 -1 -1 -1 -0 0 1 1 2 2
9 7 6 5 5 4 3 3 2 2 1 1 0 0 -0 -1 -2 -3 -4 -4 -4 -5 -5 -6 -7 -7 -7 -7 -6 -6 -5 -5 -4 -4 -3 -2 -1 -0 0 0 1 2 3
9 7 6 5 4 3 2 2 2 1 1 0 0 0 -0 -1 -2 -3 -4 -4 -4 -4 -5 -5 -6 -6 -7 -7 -6 -6 -6 -6 -6 -6 -6 -5 -3 -2 -1 0 1 2 2
8 7 6 4 3 3 2 1 1 1 1 0 -0 -0 -0 -1 -2 -3 -4 -4 -4 -4 -4 -4 -4 -6 -6 -6 -6 -6 -6 -6 -6 -7 -7 -7 -5 -4 -2 -1 0 1 2
7 6 4 4 3 2 1 1 0 0 0 -0 -1 -1 -1 -1 -2 -3 -4 -4 -4 -4 -4 -5 -5 -6 -6 -6 -5 -5 -5 -6 -6 -6 -7 -8 -8 -6 -5 -3 -2 -1 1
6 5 5 4 3 1 0 0 -0 -0 -0 -1 -1 -1 -1 -2 -2 -3 -4 -4 -4 -5 -5 -5 -5 -5 -8 -8 -6 -5 -4 -5 -5 -5 -6 -8 -8 -8 -7 -5 -4 -3 -2
6 5 4 2 2 1 -0 -1 -1 -1 -1 -2 -2 -2 -2 -2 -2 -3 -4 -4 -4 -5 -5 -4 -5 -5 -10 -10 -7 -6 -5 -4 -5 -5 -6 -6 -7 -6 -7 -7 -6 -5 -4
6 4 3 2 1 0 -1 -1 -2 -2 -3 -3 -2 -3 -3 -3 -3 -4 -5 -4 -5 -5 -5 -5 -5 -5 -8 -11 -8 -7 -6 -5 -5 -6 -5 -6 -7 -7 -6 -6 -5 -6 -7
6 4 3 1 0 -1 -2 -2 -3 -3 -4 -4 -3 -3 -3 -3 -4 -4 -4 -5 -6 -5 -6 -6 -6 -5 -7 -6 -7 -8 -7 -7 -6 -7 -7 -6 -6 -7 -6 -5 -5 -6 -6
6 5 3 2 -0 -2 -2 -3 -4 -4 -4 -4 -4 -4 -4 -4 -4 -4 -5 -6 -7 -7 -6 -7 -6 -6 -6 -7 -7 -7 -7 -7 -8 -8 -11 -8 -7 -8 -7 -6 -6 -7 -8
5 3 2 0 -1 -2 -3 -4 -5 -5 -5 -5 -4 -4 -4 -5 -5 -6 -6 -7 -8 -9 -7 -7 -7 -7 -6 -7 -7 -7 -8 -7 -8 -9 -9 -11 -9 -8 -7 -6 -7 -8 -9
3 2 1 0 -1 -2 -3 -4 -4 -5 -4 -4 -4 -5 -5 -5 -6 -6 -7 -8 -9 -9 -9 -8 -8 -7 -7 -8 -9 -9 -9 -10 -11 -11 -12 -13 -14 -11 -9 -9 -9 -10 -10
2 1 0 -1 -2 -2 -3 -3 -4 -4 -4 -5 -4 -5 -5 -5 -6 -7 -8 -9 -10 -10 -10 -9 -8 -8 -8 -7 -7 -8 -8 -10 -11 -13 -13 -13 -13 -13 -11 -11 -11 -10 -9
1 -0 -1 -1 -2 -3 -3 -3 -4 -4 -4 -5 -5 -5 -6 -7 -6 -7 -8 -9 -9 -10 -9 -8 -8 -8 -8 -8 -8 -10 -11 -12 -12 -13 -13 -14 -13 -12 -12 -12 -11 -11 -10
-0 -1 -2 -2 -3 -3 -4 -4 -4 -4 -5 -5 -5 -6 -6 -6 -7 -8 -8 -8 -8 -8 -8 -8 -8 -9 -9 -9 -10 -11 -12 -12 -12 -12 -12 -13 -13 -13 -13 -13 -13 -13 -13
-0 -1 -2 -3 -3 -3 -4 -4 -5 -5 -5 -6 -6 -7 -7 -7 -7 -8 -8 -8 -8 -8 -9 -9 -9 -9 -9 -9 -11 -12 -12 -13 -13 -13 -12 -11 -11 -12 -12 -13 -13 -13 -14
-1 -2 -3 -4 -4 -4 -4 -5 -5 -6 -6 -6 -7 -7 -8 -8 -8 -8 -8 -9 -9 -9 -9 -9 -10 -10 -10 -10 -13 -14 -14 -13 -13 -12 -12 -13 -13 -13 -14 -14 -14 -15 -15
Height
1524 1526 1528 1529 1529 1529 1529 1527 1526 1525 1523 1520 1517 1515 1513 1510 1507 1504 1500 1494 1490 1485 1480 1475 1471 1469 1468 1467 1466 1464 1461 1460 1463 1460 1457 1455 1456 1460 1460 1462 1464 1466 1468
1522 1524 1525 1526 1526 1526 1527 1526 1523 1522 1520 1518 1515 1513 1510 1508 1505 1501 1496 1491 1485 1479 1473 1469 1464 1462 1459 1458 1458 1458 1454 1454 1458 1457 1455 1449 1448 1450 1454 1455 1457 1458 1460
1519 1522 1524 1525 1525 1525 1525 1523 1522 1520 1518 1516 1514 1512 1509 1505 1500 1495 1489 1483 1478 1473 1467 1463 1460 1457 1455 1452 1451 1451 1451 1447 1449 1453 1455 1451 1445 1442 1445 1448 1450 1451 1452
1516 1520 1522 1523 1523 1523 1522 1522 1520 1518 1516 1514 1511 1508 1504 1500 1497 1492 1487 1481 1474 1469 1464 1460 1457 1454 1450 1446 1444 1443 1443 1443 1441 1443 1446 1447 1446 1444 1440 1441 1443 1444 1445
1511 1516 1519 1520 1521 1521 1521 1521 1520 1517 1516 1513 1509 1506 1503 1500 1496 1490 1483 1477 1470 1467 1462 1458 1454 1450 1445 1442 1439 1436 1436 1436 1436 1436 1436 1437 1438 1440 1439 1436 1434 1438 1440
1509 1513 1516 1519 1518 1517 1519 1519 1518 1516 1515 1512 1507 1504 1501 1497 1493 1488 1481 1474 1468 1464 1460 1455 1451 1446 1441 1437 1433 1431 1429 1429 1429 1429 1430 1431 1434 1434 1434 1432 1432 1430 1432
1507 1509 1513 1516 1516 1515 1517 1516 1516 1514 1513 1510 1507 1502 1499 1495 1490 1485 1481 1474 1468 1463 1458 1453 1446 1441 1437 1433 1428 1425 1423 1422 1421 1422 1423 1425 1426 1429 1429 1428 1428 1426 1424
1504 1507 1511 1512 1513 1513 1514 1514 1514 1513 1511 1508 1506 1502 1498 1493 1489 1485 1482 1476 1470 1464 1459 1452 1446 1440 1435 1431 1427 1424 1420 1416 1414 1415 1417 1419 1421 1423 1424 1425 1426 1421 1422
1501 1505 1507 1508 1508 1508 1510 1511 1511 1511 1510 1507 1505 1502 1497 1493 1488 1485 1482 1477 1471 1466 1459 1453 1447 1441 1435 1430 1426 1423 1419 1413 1409 1411 1412 1413 1415 1417 1419 1420 1421 1422 1419
1498 1500 1502 1504 1505 1505 1507 1508 1508 1508 1507 1505 1504 1501 1496 1493 1488 1485 1481 1477 1472 1467 1461 1454 1449 1442 1437 1432 1427 1423 1419 1415 1412 1410 1409 1409 1410 1412 1413 1415 1416 1417 1417
1493 1495 1498 1499 1501 1503 1505 1505 1506 1506 1504 1504 1501 1499 1496 1492 1488 1484 1480 1477 1473 1467 1463 1457 1451 1446 1440 1435 1429 1425 1421 1417 1413 1410 1408 1407 1407 1407 1408 1410 1412 1411 1412
1488 1491 1493 1496 1498 1499 1501 1502 1503 1503 1502 1501 1499 1498 1495 1492 1488 1484 1480 1478 1473 1469 1465 1460 1454 1449 1444 1439 1434 1429 1425 1421 1417 1412 1409 1406 1404 1403 1403 1405 1407 1408 1408
1486 1489 1490 1493 1495 1496 1498 1500 1501 1501 1500 1499 1497 1496 1494 1492 1489 1484 1482 1479 1475 1471 1467 1463 1458 1453 1449 1444 1440 1435 1430 1426 1422 1417 1412 1410 1405 1402 1401 1401 1402 1404 1406
1480 1485 1488 1490 1491 1494 1496 1497 1498 1498 1498 1498 1496 1495 1493 1492 1489 1485 1483 1480 1476 1473 1469 1465 1462 1457 1454 1450 1446 1441 1436 1432 1427 1423 1418 1416 1413 1408 1405 1402 1401 1402 1403
1478 1482 1484 1486 1488 1490 1493 1494 1495 1496 1496 1496 1495 1494 1493 1491 1490 1487 1485 1482 1479 1475 1472 1469 1465 1461 1458 1454 1451 1447 1442 1438 1434 1430 1426 1422 1420 1417 1413 1408 1406 1405 1404
1472 1475 1478 1481 1485 1487 1489 1492 1493 1494 1494 1494 1494 1493 1492 1491 1489 1488 1487 1485 1482 1479 1475 1472 1468 1465 1462 1460 1456 1452 1447 1443 1440 1436 1432 1429 1427 1423 1420 1417 1413 1411 1410
1467 1469 1472 1476 1480 1483 1485 1488 1491 1492 1493 1493 1492 1492 1491 1490 1489 1488 1487 1486 1484 1482 1479 1475 1471 1468 1465 1463 1460 1456 1452 1448 1445 1442 1439 1435 1432 1430 1427 1424 1421 1418 1417
1465 1468 1471 1474 1477 1481 1483 1486 1488 1490 1491 1491 1491 1491 1491 1490 1489 1488 1488 1487 1485 1483 1481 1478 1475 1471 1469 1467 1464 1461 1458 1453 1450 1446 1445 1442 1439 1437 1434 1431 1427 1425 1423
1463 1466 1469 1472 1476 1479 1480 1484 1486 1487 1489 1490 1490 1490 1490 1489 1489 1488 1488 1487 1486 1485 1483 1481 1478 1475 1473 1471 1469 1466 1463 1459 1455 1452 1451 1447 1445 1443 1441 1437 1434 1432 1430
1462 1464 1466 1471 1474 1476 1479 1481 1483 1485 1487 1487 1488 1489 1489 1489 1489 1489 1488 1488 1487 1486 1484 1483 1481 1478 1475 1474 1472 1469 1466 1463 1460 1458 1455 1453 1450 1448 1445 1441 1439 1437 1436
1460 1462 1465 1469 1471 1474 1477 1480 1482 1484 1485 1486 1487 1487 1487 1488 1488 1489 1489 1489 1489 1488 1486 1485 1482 1480 1478 1475 1473 1471 1468 1466 1463 1461 1458 1457 1455 1451 1449 1446 1443 1441 1442
1458 1461 1464 1466 1470 1473 1475 1478 1481 1483 1484 1485 1485 1486 1487 1487 1488 1489 1489 1489 1489 1488 1487 1486 1484 1482 1480 1477 1474 1473 1471 1469 1467 1465 1463 1461 1459 1456 1453 1449 1448 1446 1443
1457 1459 1462 1464 1468 1470 1473 1475 1477 1480 1481 1483 1484 1484 1485 1486 1487 1488 1488 1488 1488 1488 1487 1486 1485 1483 1482 1479 1477 1475 1474 1472 1469 1468 1466 1464 1461 1459 1456 1454 1451 1448 1444
1453 1456 1459 1461 1464 1467 1470 1473 1475 1477 1479 1481 1482 1483 1483 1484 1486 1487 1488 1488 1488 1487 1487 1486 1485 1484 1483 1481 1480 1478 1476 1474 1472 1470 1468 1465 1463 1461 1459 1455 1451 1448 1444
1449 1452 1454 1457 1460 1463 1466 1468 1471 1474 1476 1479 1481 1481 1482 1483 1485 1487 1487 1488 1487 1487 1487 1486 1485 1484 1483 1481 1480 1479 1476 1475 1473 1471 1469 1466 1463 1461 1458 1456 1453 1450 1448
1445 1447 1450 1453 1456 1458 1462 1465 1468 1471 1474 1476 1478 1480 1482 1483 1484 1486 1486 1487 1487 1486 1485 1484 1484 1483 1482 1481 1480 1480 1477 1475 1473 1471 1468 1466 1464 1461 1459 1457 1455 1452 1451
Wind_Speed
12 4 2 3 4 5 7 9 11 13 17 21 24 26 28 29 28 30 31 34 36 37 38 39 39 38 36 34 33 34 33 31 26 28 31 34 34 30 30 30 28 28 32
13 7 4 4 5 6 8 9 11 15 18 21 23 24 25 25 26 27 29 31 34 35 36 35 36 36 35 30 27 27 30 33 23 20 22 22 30 33 33 35 33 31 30
18 13 8 6 6 7 9 9 11 15 18 20 21 21 21 25 28 31 33 35 34 32 29 28 27 28 28 29 28 25 22 26 28 22 12 8 8 13 17 24 26 29 30
21 16 12 9 7 7 8 8 10 14 18 20 20 21 23 26 27 28 30 32 30 27 24 24 24 26 27 28 27 23 23 24 25 28 26 24 18 7 12 15 13 10 18
26 20 15 11 7 6 6 8 8 14 18 19 19 20 21 23 24 27 30 34 31 26 25 25 26 24 25 24 22 22 21 20 23 24 28 29 29 25 21 25 31 24 20
21 20 14 8 7 5 6 6 7 12 16 16 18 19 20 22 24 27 29 33 30 28 25 28 25 24 23 23 23 21 21 21 22 22 22 27 21 16 12 18 24 27 25
26 17 11 15 11 8 8 6 7 12 14 15 16 17 19 20 23 25 27 31 29 29 27 29 27 23 22 21 21 19 19 18 22 23 23 23 28 30 25 20 21 21 28
20 14 16 18 12 11 10 7 9 10 11 14 15 17 18 19 20 22 24 27 27 28 27 26 25 22 21 20 18 16 17 18 18 17 19 19 23 23 29 27 26 32 30
24 23 23 17 14 12 10 6 8 9 10 13 14 14 16 18 18 19 19 22 25 27 27 24 23 21 20 18 16 14 14 13 5 6 14 15 15 20 21 21 22 27 25
27 24 22 18 15 13 10 6 7 8 9 11 11 14 15 15 15 15 17 18 21 24 25 25 23 22 21 18 18 16 14 12 9 3 6 12 15 16 18 18 18 21 24
30 29 24 21 16 12 9 8 7 7 7 9 10 12 12 12 13 14 17 17 18 20 22 24 25 24 23 20 19 19 17 17 17 15 9 3 9 14 17 17 17 9 18
36 32 26 22 15 12 11 9 7 6 6 7 8 10 11 10 11 14 17 17 17 19 19 21 24 25 25 24 23 22 23 23 24 26 28 19 9 2 10 14 17 20 8
30 28 25 19 14 13 11 10 8 7 6 6 6 8 8 9 11 13 15 17 17 19 18 18 22 27 27 25 23 22 22 24 25 28 34 33 24 17 8 2 6 11 13
31 28 22 15 13 13 12 10 9 7 6 4 4 5 7 8 10 12 13 15 17 18 18 19 20 26 27 27 26 25 24 24 24 26 31 35 36 34 25 15 9 7 6
25 23 20 14 11 13 13 12 9 7 5 2 2 3 5 7 8 10 13 15 17 18 17 16 18 21 26 29 27 26 26 26 24 25 27 29 30 34 36 33 27 22 20
24 21 19 16 12 12 14 13 10 7 5 3 1 2 5 6 8 9 12 14 16 19 19 17 16 19 24 22 27 26 27 29 30 29 29 29 29 30 31 33 33 31 30
27 25 21 16 12 13 13 12 10 9 6 4 3 3 3 4 7 9 11 13 17 18 20 21 19 19 20 20 23 26 27 29 32 32 30 30 29 29 29 29 29 32 33
25 24 21 17 14 14 13 12 11 11 8 5 3 3 3 4 7 8 9 12 14 17 20 21 22 21 22 20 22 24 27 28 30 33 31 30 30 28 26 26 27 29 29
18 21 20 16 18 17 16 13 12 11 9 8 6 4 4 5 7 7 8 10 12 14 15 18 20 21 22 20 21 21 24 27 29 30 32 31 30 27 25 25 27 27 28
16 19 18 19 19 18 18 15 15 15 13 9 7 6 6 6 7 8 10 11 10 13 13 14 16 17 18 18 18 19 22 23 26 26 27 28 27 25 25 27 27 27 26
15 18 20 21 21 23 22 21 20 17 14 11 9 7 7 6 5 6 8 9 9 9 11 12 14 15 15 17 17 18 20 25 26 27 28 27 26 26 26 25 25 26 20
17 21 22 22 22 23 21 21 21 17 14 12 10 9 7 8 9 9 9 8 7 4 5 7 11 13 14 14 15 15 17 19 22 23 22 23 24 24 26 27 25 22 23
18 22 22 22 23 23 22 20 20 17 15 14 13 11 10 10 9 9 9 9 8 5 2 5 9 11 12 14 14 16 16 16 16 17 16 17 20 21 23 24 24 24 25
20 22 24 25 25 24 21 19 18 17 15 15 13 12 13 11 8 8 8 7 4 4 3 4 7 9 10 11 13 12 12 13 13 12 12 12 14 18 20 22 25 26 27
18 22 25 27 26 24 22 21 19 18 17 16 15 14 13 10 8 7 8 6 4 4 4 6 7 8 8 11 12 12 11 10 9 8 9 12 15 18 20 21 21 22 24
18 19 22 25 26 25 23 22 21 20 19 18 17 15 12 11 10 8 8 7 6 5 4 5 6 7 8 9 11 9 9 6 8 9 13 14 15 17 19 19 19 19 20
Wind_Direction
163 177 169 140 289 320 334 333 338 339 340 343 345 344 343 340 336 333 326 316 310 305 300 298 299 298 296 292 285 277 279 275 277 276 269 261 258 250 258 263 262 256 251
163 173 187 238 276 304 327 329 340 338 343 348 348 347 345 345 341 337 334 329 320 312 306 303 301 302 303 303 300 295 283 271 272 288 279 287 271 259 253 257 260 261 263
172 181 198 232 274 315 325 328 341 337 341 344 342 343 343 343 344 347 345 343 335 326 321 317 315 311 308 306 301 293 294 294 267 254 266 299 258 294 264 251 260 266 263
173 182 192 214 263 295 312 331 341 333 336 340 342 343 344 343 343 343 344 345 345 338 334 329 320 316 311 307 305 296 277 275 280 267 240 250 265 308 300 240 233 251 261
165 175 182 205 233 267 312 335 341 325 332 336 335 334 338 341 341 341 348 351 354 347 342 334 327 322 319 316 309 299 287 272 272 269 263 256 251 248 269 275 267 269 267
168 172 180 183 196 247 302 321 321 312 324 329 329 337 341 343 343 345 353 354 357 350 347 342 336 328 322 315 311 304 290 277 264 262 262 255 258 248 278 263 270 272 272
168 175 181 172 201 238 281 278 295 302 321 322 328 338 340 341 345 349 356 359 360 355 351 344 348 342 337 329 331 329 317 295 268 259 260 254 250 248 259 273 268 284 273
171 167 169 180 210 243 269 280 289 301 313 315 329 335 340 345 345 351 356 5 6 1 353 350 356 356 353 348 345 343 335 308 287 266 256 263 248 248 256 266 275 282 272
167 175 185 203 220 242 262 277 285 303 305 312 333 338 345 346 350 351 2 6 12 7 4 5 7 9 10 6 4 357 0 7 353 282 260 261 263 256 257 263 270 269 276
180 191 194 206 220 245 257 274 283 293 299 314 334 339 349 350 354 356 8 2 6 12 14 16 17 19 25 22 30 26 27 33 36 15 255 254 251 252 254 256 257 260 266
182 186 192 212 226 249 247 252 265 277 295 313 338 341 348 355 359 7 17 7 4 12 18 24 25 27 30 30 40 45 45 49 53 49 30 297 247 239 245 247 238 264 247
183 186 199 212 221 233 239 242 254 267 292 317 340 342 349 1 7 17 23 16 14 17 22 25 35 36 36 38 44 51 56 54 54 57 49 42 38 262 244 242 246 254 272
185 191 203 210 224 235 235 232 240 258 285 316 341 342 355 6 19 27 27 29 29 27 32 33 39 42 39 38 43 49 55 60 58 59 58 47 52 53 57 175 224 233 247
188 190 200 216 228 227 224 223 228 244 268 305 331 354 8 13 24 34 31 29 33 34 36 39 43 52 46 47 46 49 52 55 59 61 64 56 49 55 59 65 89 115 146
186 195 206 211 221 217 216 215 222 226 245 271 328 7 30 30 31 37 43 40 39 40 40 44 47 55 46 47 49 52 57 57 55 56 58 61 61 56 59 66 71 83 91
196 203 211 211 214 214 209 208 210 212 213 203 209 54 53 46 46 51 54 52 51 49 51 48 47 53 55 43 52 52 55 59 57 57 59 58 57 63 62 64 66 69 68
195 201 207 215 219 215 212 207 204 203 193 190 161 110 86 73 73 76 74 65 60 56 54 54 52 54 59 50 52 53 55 57 61 57 56 57 57 54 58 61 65 67 62
194 199 203 205 213 208 210 205 208 196 189 190 165 139 110 89 89 90 85 76 63 55 53 54 52 56 56 53 53 54 56 57 58 59 54 57 56 56 55 58 59 58 61
203 207 207 210 205 204 205 201 191 195 197 191 179 159 134 109 104 99 87 72 61 54 47 49 53 52 59 60 57 55 53 54 55 54 49 48 53 57 55 58 61 62 61
203 202 202 200 200 196 194 201 196 198 201 203 194 165 147 135 126 104 87 74 60 47 44 47 49 51 55 56 60 56 57 56 57 57 56 50 49 46 44 47 51 54 56
203 207 206 204 204 200 204 204 208 211 210 200 195 183 166 154 139 127 110 92 71 48 37 37 46 46 49 49 49 50 52 53 49 48 48 44 44 45 49 50 50 51 49
200 207 207 206 208 212 213 213 211 214 210 203 198 187 174 156 139 142 136 126 116 97 39 41 50 51 50 55 55 56 58 55 55 48 42 46 42 44 45 44 42 41 42
207 207 215 212 210 214 218 217 213 211 204 198 192 183 174 170 172 168 161 162 167 174 131 44 55 53 52 56 61 68 65 61 57 48 49 45 39 37 37 41 40 39 40
217 216 214 215 215 216 217 213 213 207 200 197 190 180 179 184 178 180 181 183 170 147 112 73 56 55 55 62 65 70 63 56 42 40 45 48 40 38 35 32 33 35 33
229 223 220 218 218 218 214 211 206 203 197 194 188 184 188 190 168 152 151 166 161 139 104 75 57 53 51 52 55 56 53 40 40 31 40 39 31 32 31 30 28 27 28
231 226 221 220 217 216 213 209 206 204 203 197 193 193 185 181 181 167 145 135 124 120 90 57 44 38 42 50 59 53 41 40 27 19 30 31 27 26 24 23 24 23 22